AAL2541 KAMA-KSLC

Flight info

Callsign AAL2541
Flight time 1h 33m
Altitude 32000
Route HBU HELPR JAZZZ1
Aircraft B738/M-SDE2E3FGHIRWXY/LB1

Departure

Time 2026-05-06 20:38
Airport Rick Husband Amarillo International Airport (KAMA)

Arrival

Time 2026-05-06 22:12
Airport Salt Lake City International Airport (KSLC)
Time Latitude Longitude Altitude Speed Heading
2026-05-06 20:25 35.21892 -101.70645 3607 ft 0 kts 112°
2026-05-06 20:26 35.21892 -101.70646 3607 ft 1 kts 112°
2026-05-06 20:26 35.21901 -101.70671 3607 ft 4 kts 114°
2026-05-06 20:26 35.21912 -101.70701 3607 ft 4 kts 116°
2026-05-06 20:27 35.21925 -101.70730 3606 ft 4 kts 122°
2026-05-06 20:27 35.21940 -101.70756 3607 ft 4 kts 142°
2026-05-06 20:27 35.21957 -101.70766 3606 ft 3 kts 219°
2026-05-06 20:27 35.21959 -101.70764 3606 ft 1 kts 227°
2026-05-06 20:29 35.21956 -101.70768 3606 ft 3 kts 227°
2026-05-06 20:30 35.21930 -101.70802 3605 ft 7 kts 226°
2026-05-06 20:30 35.21838 -101.70917 3607 ft 11 kts 225°
2026-05-06 20:30 35.21795 -101.70987 3607 ft 10 kts 265°
2026-05-06 20:31 35.21832 -101.71059 3607 ft 10 kts 279°
2026-05-06 20:31 35.21795 -101.71129 3607 ft 10 kts 225°
2026-05-06 20:31 35.21746 -101.71190 3607 ft 11 kts 226°
2026-05-06 20:31 35.21690 -101.71260 3607 ft 12 kts 226°
2026-05-06 20:32 35.21628 -101.71338 3605 ft 14 kts 226°
2026-05-06 20:32 35.21557 -101.71428 3607 ft 16 kts 225°
2026-05-06 20:32 35.21483 -101.71521 3607 ft 15 kts 226°
2026-05-06 20:32 35.21412 -101.71610 3605 ft 14 kts 226°
2026-05-06 20:33 35.21344 -101.71695 3607 ft 14 kts 226°
2026-05-06 20:33 35.21280 -101.71777 3605 ft 13 kts 226°
2026-05-06 20:33 35.21217 -101.71855 3607 ft 13 kts 226°
2026-05-06 20:33 35.21155 -101.71934 3607 ft 14 kts 226°
2026-05-06 20:34 35.21088 -101.72017 3607 ft 14 kts 225°
2026-05-06 20:34 35.21024 -101.72098 3607 ft 13 kts 226°
2026-05-06 20:34 35.20961 -101.72178 3606 ft 14 kts 225°
2026-05-06 20:34 35.20884 -101.72275 3607 ft 16 kts 226°
2026-05-06 20:35 35.20808 -101.72371 3605 ft 15 kts 226°
2026-05-06 20:35 35.20734 -101.72463 3607 ft 15 kts 226°
2026-05-06 20:35 35.20662 -101.72553 3605 ft 16 kts 226°
2026-05-06 20:35 35.20585 -101.72650 3607 ft 16 kts 226°
2026-05-06 20:36 35.20509 -101.72747 3607 ft 15 kts 226°
2026-05-06 20:36 35.20435 -101.72839 3607 ft 15 kts 226°
2026-05-06 20:36 35.20365 -101.72928 3607 ft 14 kts 226°
2026-05-06 20:36 35.20351 -101.73037 3606 ft 14 kts 296°
2026-05-06 20:37 35.20413 -101.73119 3607 ft 13 kts 316°
2026-05-06 20:37 35.20477 -101.73195 3606 ft 13 kts 316°
2026-05-06 20:37 35.20545 -101.73222 3606 ft 9 kts 39°
2026-05-06 20:37 35.20560 -101.73205 3605 ft 0 kts 45°
2026-05-06 20:38 35.20633 -101.73113 3605 ft 48 kts 46°
2026-05-06 20:38 35.21040 -101.72600 3608 ft 119 kts 46°
2026-05-06 20:38 35.21764 -101.71695 3700 ft 171 kts 49°
2026-05-06 20:38 35.22615 -101.70653 4588 ft 174 kts 44°
2026-05-06 20:39 35.23547 -101.69723 5488 ft 179 kts 37°
2026-05-06 20:39 35.24829 -101.69316 5785 ft 209 kts 353°
2026-05-06 20:39 35.26153 -101.70202 5982 ft 234 kts 309°
2026-05-06 20:39 35.26944 -101.72024 6303 ft 250 kts 292°
2026-05-06 20:40 35.27676 -101.74048 6656 ft 271 kts 294°
2026-05-06 20:40 35.28530 -101.76128 7448 ft 273 kts 297°
2026-05-06 20:40 35.29450 -101.78121 8518 ft 266 kts 298°
2026-05-06 20:40 35.30412 -101.80027 9432 ft 266 kts 300°
2026-05-06 20:41 35.31433 -101.81919 10316 ft 267 kts 301°
2026-05-06 20:41 35.32528 -101.83858 10651 ft 288 kts 302°
2026-05-06 20:41 35.33745 -101.85939 10833 ft 312 kts 303°
2026-05-06 20:41 35.35082 -101.88158 11002 ft 335 kts 304°
2026-05-06 20:42 35.36533 -101.90513 11174 ft 355 kts 304°
2026-05-06 20:42 35.38065 -101.92953 11621 ft 365 kts 305°
2026-05-06 20:42 35.39632 -101.95416 12291 ft 368 kts 305°
2026-05-06 20:42 35.41217 -101.97889 13000 ft 370 kts 305°
2026-05-06 20:43 35.42820 -102.00380 13658 ft 373 kts 305°
2026-05-06 20:43 35.44414 -102.02854 14246 ft 376 kts 305°
2026-05-06 20:43 35.46045 -102.05383 14822 ft 379 kts 305°
2026-05-06 20:43 35.47683 -102.07924 15398 ft 382 kts 305°
2026-05-06 20:44 35.49340 -102.10495 15964 ft 385 kts 305°
2026-05-06 20:44 35.51008 -102.13085 16533 ft 388 kts 305°
2026-05-06 20:44 35.52688 -102.15697 17080 ft 391 kts 305°
2026-05-06 20:44 35.54359 -102.18295 17616 ft 394 kts 305°
2026-05-06 20:45 35.56064 -102.20948 18117 ft 397 kts 305°
2026-05-06 20:45 35.57782 -102.23625 18595 ft 400 kts 305°
2026-05-06 20:45 35.59509 -102.26318 19076 ft 402 kts 304°
2026-05-06 20:45 35.61242 -102.29021 19594 ft 402 kts 303°
2026-05-06 20:46 35.62982 -102.31738 20085 ft 405 kts 304°
2026-05-06 20:46 35.64734 -102.34477 20423 ft 410 kts 304°
2026-05-06 20:46 35.66504 -102.37246 20876 ft 412 kts 304°
2026-05-06 20:46 35.68280 -102.40025 21364 ft 413 kts 303°
2026-05-06 20:47 35.70033 -102.42770 21787 ft 415 kts 303°
2026-05-06 20:47 35.71821 -102.45573 22165 ft 418 kts 303°
2026-05-06 20:47 35.73625 -102.48405 22541 ft 421 kts 303°
2026-05-06 20:47 35.75434 -102.51246 22937 ft 423 kts 303°
2026-05-06 20:48 35.77255 -102.54107 23315 ft 425 kts 303°
2026-05-06 20:48 35.79083 -102.56981 23692 ft 427 kts 303°
2026-05-06 20:48 35.80919 -102.59872 24005 ft 429 kts 302°
2026-05-06 20:48 35.82758 -102.62769 24351 ft 429 kts 302°
2026-05-06 20:49 35.84601 -102.65674 24637 ft 432 kts 302°
2026-05-06 20:49 35.86466 -102.68623 24765 ft 439 kts 302°
2026-05-06 20:49 35.88324 -102.71559 25080 ft 439 kts 302°
2026-05-06 20:49 35.90202 -102.74525 25466 ft 438 kts 301°
2026-05-06 20:50 35.92073 -102.77480 25833 ft 437 kts 301°
2026-05-06 20:50 35.93945 -102.80441 26182 ft 436 kts 301°
2026-05-06 20:50 35.95806 -102.83389 26542 ft 435 kts 300°
2026-05-06 20:50 35.97665 -102.86334 26961 ft 433 kts 300°
2026-05-06 20:51 35.99511 -102.89262 27414 ft 430 kts 300°
2026-05-06 20:51 36.01344 -102.92171 27844 ft 427 kts 299°
2026-05-06 20:51 36.03162 -102.95061 28269 ft 425 kts 298°
2026-05-06 20:51 36.04947 -102.97902 28716 ft 423 kts 299°
2026-05-06 20:52 36.06758 -103.00793 28882 ft 428 kts 299°
2026-05-06 20:52 36.08584 -103.03711 29122 ft 429 kts 299°
2026-05-06 20:52 36.10407 -103.06621 29568 ft 427 kts 299°
2026-05-06 20:52 36.12223 -103.09516 30076 ft 423 kts 298°
2026-05-06 20:53 36.14022 -103.12386 30461 ft 421 kts 298°
2026-05-06 20:53 36.15808 -103.15242 30780 ft 420 kts 298°
2026-05-06 20:53 36.17599 -103.18114 30972 ft 422 kts 298°
2026-05-06 20:53 36.19394 -103.20994 31236 ft 422 kts 298°
2026-05-06 20:54 36.21186 -103.23867 31594 ft 420 kts 298°
2026-05-06 20:54 36.22969 -103.26725 31989 ft 417 kts 298°
2026-05-06 20:54 36.24721 -103.29540 32106 ft 419 kts 298°
2026-05-06 20:55 36.28299 -103.35305 32080 ft 422 kts 299°
2026-05-06 20:55 36.31877 -103.41068 32073 ft 420 kts 299°
2026-05-06 20:56 36.35440 -103.46814 32060 ft 419 kts 299°
2026-05-06 20:56 36.38985 -103.52545 32041 ft 418 kts 299°
2026-05-06 20:57 36.42502 -103.58242 32035 ft 418 kts 299°
2026-05-06 20:57 36.46049 -103.63996 32069 ft 420 kts 300°
2026-05-06 20:58 36.49609 -103.69783 32048 ft 423 kts 300°
2026-05-06 20:58 36.53191 -103.75614 32058 ft 425 kts 300°
2026-05-06 20:59 36.56763 -103.81438 32048 ft 427 kts 300°
2026-05-06 20:59 36.60394 -103.87368 32036 ft 429 kts 300°
2026-05-06 21:00 36.63991 -103.93252 32053 ft 430 kts 300°
2026-05-06 21:00 36.67620 -103.99198 32063 ft 431 kts 301°
2026-05-06 21:01 36.71246 -104.05149 32078 ft 430 kts 301°
2026-05-06 21:01 36.74849 -104.11073 32063 ft 430 kts 301°
2026-05-06 21:02 36.78460 -104.17024 32098 ft 429 kts 301°
2026-05-06 21:02 36.82064 -104.22971 32104 ft 429 kts 301°
2026-05-06 21:03 36.85660 -104.28916 32140 ft 428 kts 301°
2026-05-06 21:03 36.89223 -104.34820 32118 ft 428 kts 302°
2026-05-06 21:04 36.92808 -104.40769 32102 ft 428 kts 302°
2026-05-06 21:04 36.96386 -104.46716 32115 ft 427 kts 301°
2026-05-06 21:05 36.99962 -104.52670 32119 ft 427 kts 301°
2026-05-06 21:05 37.03505 -104.58579 32144 ft 426 kts 301°
2026-05-06 21:06 37.07064 -104.64528 32148 ft 427 kts 302°
2026-05-06 21:06 37.10630 -104.70499 32146 ft 428 kts 302°
2026-05-06 21:07 37.14198 -104.76483 32149 ft 429 kts 302°
2026-05-06 21:07 37.17753 -104.82456 32156 ft 430 kts 302°
2026-05-06 21:08 37.21334 -104.88482 32152 ft 431 kts 302°
2026-05-06 21:08 37.24920 -104.94528 32175 ft 432 kts 303°
2026-05-06 21:09 37.28518 -105.00607 32172 ft 434 kts 303°
2026-05-06 21:09 37.32120 -105.06701 32178 ft 435 kts 303°
2026-05-06 21:10 37.35706 -105.12780 32147 ft 435 kts 303°
2026-05-06 21:10 37.39310 -105.18900 32175 ft 435 kts 303°
2026-05-06 21:11 37.42918 -105.25038 32137 ft 436 kts 303°
2026-05-06 21:11 37.45917 -105.30150 32116 ft 436 kts 303°
2026-05-06 21:12 37.49517 -105.36297 32085 ft 436 kts 303°
2026-05-06 21:12 37.53642 -105.43353 32100 ft 435 kts 303°
2026-05-06 21:13 37.57220 -105.49484 32119 ft 433 kts 303°
2026-05-06 21:13 37.60188 -105.54582 32081 ft 434 kts 303°
2026-05-06 21:14 37.63765 -105.60736 32083 ft 435 kts 304°
2026-05-06 21:14 37.67342 -105.66899 32043 ft 434 kts 305°
2026-05-06 21:15 37.70908 -105.73055 32058 ft 434 kts 305°
2026-05-06 21:15 37.74466 -105.79207 32040 ft 433 kts 305°
2026-05-06 21:16 37.78025 -105.85374 32046 ft 434 kts 305°
2026-05-06 21:16 37.81581 -105.91548 32051 ft 435 kts 306°
2026-05-06 21:17 37.85140 -105.97737 32037 ft 435 kts 306°
2026-05-06 21:17 37.88675 -106.03898 32036 ft 435 kts 307°
2026-05-06 21:18 37.92238 -106.10118 32048 ft 436 kts 307°
2026-05-06 21:18 37.95804 -106.16355 32043 ft 437 kts 307°
2026-05-06 21:19 37.99379 -106.22619 32033 ft 438 kts 308°
2026-05-06 21:19 38.02932 -106.28856 32031 ft 440 kts 308°
2026-05-06 21:20 38.06521 -106.35171 31975 ft 442 kts 308°
2026-05-06 21:20 38.10119 -106.41514 31998 ft 442 kts 309°
2026-05-06 21:21 38.13714 -106.47861 32003 ft 442 kts 309°
2026-05-06 21:21 38.17279 -106.54169 32000 ft 441 kts 309°
2026-05-06 21:22 38.20856 -106.60511 31994 ft 441 kts 310°
2026-05-06 21:22 38.24431 -106.66860 31999 ft 440 kts 310°
2026-05-06 21:23 38.27989 -106.73195 31982 ft 439 kts 310°
2026-05-06 21:23 38.31536 -106.79518 32007 ft 438 kts 310°
2026-05-06 21:24 38.35054 -106.85801 32022 ft 439 kts 311°
2026-05-06 21:24 38.38597 -106.92145 32087 ft 440 kts 311°
2026-05-06 21:25 38.42149 -106.98513 32099 ft 440 kts 311°
2026-05-06 21:25 38.45644 -107.04950 32045 ft 444 kts 307°
2026-05-06 21:26 38.48482 -107.12006 32073 ft 448 kts 303°
2026-05-06 21:26 38.51202 -107.19157 32073 ft 447 kts 303°
2026-05-06 21:27 38.53916 -107.26233 32063 ft 446 kts 304°
2026-05-06 21:27 38.56666 -107.33327 32048 ft 445 kts 304°
2026-05-06 21:28 38.59426 -107.40427 31990 ft 446 kts 304°
2026-05-06 21:28 38.62175 -107.47514 32017 ft 444 kts 304°
2026-05-06 21:29 38.64911 -107.54582 32027 ft 443 kts 304°
2026-05-06 21:29 38.67644 -107.61660 32023 ft 443 kts 304°
2026-05-06 21:30 38.70372 -107.68740 32023 ft 444 kts 304°
2026-05-06 21:30 38.73100 -107.75840 31983 ft 444 kts 304°
2026-05-06 21:31 38.75818 -107.82932 32081 ft 443 kts 304°
2026-05-06 21:31 38.78517 -107.89991 32112 ft 442 kts 304°
2026-05-06 21:32 38.81220 -107.97077 32123 ft 441 kts 304°
2026-05-06 21:32 38.85228 -108.07614 32127 ft 439 kts 304°
2026-05-06 21:33 38.87895 -108.14646 32118 ft 437 kts 304°
2026-05-06 21:33 38.90538 -108.21637 32100 ft 433 kts 304°
2026-05-06 21:34 38.93179 -108.28626 32092 ft 435 kts 304°
2026-05-06 21:34 38.95830 -108.35652 32105 ft 439 kts 304°
2026-05-06 21:35 38.98495 -108.42739 32119 ft 441 kts 304°
2026-05-06 21:35 39.01162 -108.49854 32136 ft 443 kts 303°
2026-05-06 21:36 39.03813 -108.56948 32153 ft 443 kts 303°
2026-05-06 21:36 39.06481 -108.64102 32149 ft 442 kts 303°
2026-05-06 21:37 39.09137 -108.71239 32133 ft 441 kts 303°
2026-05-06 21:37 39.11784 -108.78370 32002 ft 441 kts 303°
2026-05-06 21:38 39.14419 -108.85482 32040 ft 439 kts 303°
2026-05-06 21:38 39.17026 -108.92536 32048 ft 439 kts 303°
2026-05-06 21:39 39.19645 -108.99636 32060 ft 438 kts 303°
2026-05-06 21:39 39.22258 -109.06743 32062 ft 437 kts 303°
2026-05-06 21:40 39.24860 -109.13834 32044 ft 436 kts 302°
2026-05-06 21:40 39.27435 -109.20867 32063 ft 436 kts 302°
2026-05-06 21:41 39.30024 -109.27955 32076 ft 435 kts 302°
2026-05-06 21:41 39.32599 -109.35026 32074 ft 435 kts 302°
2026-05-06 21:42 39.35148 -109.42040 32102 ft 433 kts 302°
2026-05-06 21:42 39.37709 -109.49103 32105 ft 434 kts 302°
2026-05-06 21:43 39.40283 -109.56212 32113 ft 438 kts 302°
2026-05-06 21:43 39.42873 -109.63384 32123 ft 441 kts 302°
2026-05-06 21:44 39.45467 -109.70592 32116 ft 443 kts 302°
2026-05-06 21:44 39.48066 -109.77836 32122 ft 444 kts 302°
2026-05-06 21:45 39.50644 -109.85037 32101 ft 444 kts 301°
2026-05-06 21:45 39.53236 -109.92292 32106 ft 444 kts 301°
2026-05-06 21:46 39.55829 -109.99568 32105 ft 443 kts 301°
2026-05-06 21:46 39.58417 -110.06848 32105 ft 444 kts 301°
2026-05-06 21:47 39.60973 -110.14060 32073 ft 442 kts 301°
2026-05-06 21:47 39.63537 -110.21307 32060 ft 442 kts 301°
2026-05-06 21:48 39.66096 -110.28561 32065 ft 441 kts 301°
2026-05-06 21:48 39.68648 -110.35811 32054 ft 441 kts 301°
2026-05-06 21:49 39.71190 -110.43051 32066 ft 439 kts 301°
2026-05-06 21:49 39.72434 -110.46613 31990 ft 426 kts 301°
2026-05-06 21:49 39.73638 -110.50061 31850 ft 412 kts 301°
2026-05-06 21:50 39.74803 -110.53402 31800 ft 399 kts 301°
2026-05-06 21:50 39.75950 -110.56625 31717 ft 386 kts 302°
2026-05-06 21:50 39.77101 -110.59678 31519 ft 377 kts 303°
2026-05-06 21:50 39.78273 -110.62713 31133 ft 374 kts 304°
2026-05-06 21:51 39.79449 -110.65734 30670 ft 374 kts 304°
2026-05-06 21:51 39.80624 -110.68764 30230 ft 374 kts 303°
2026-05-06 21:51 39.81788 -110.71783 29771 ft 372 kts 303°
2026-05-06 21:51 39.82939 -110.74787 29368 ft 368 kts 303°
2026-05-06 21:52 39.84076 -110.77764 28600 ft 371 kts 303°
2026-05-06 21:52 39.85245 -110.80816 27503 ft 380 kts 303°
2026-05-06 21:52 39.86427 -110.83912 26499 ft 384 kts 303°
2026-05-06 21:52 39.87601 -110.87001 25549 ft 387 kts 303°
2026-05-06 21:53 39.88796 -110.90152 24630 ft 389 kts 302°
2026-05-06 21:53 39.89996 -110.93323 23737 ft 391 kts 302°
2026-05-06 21:53 39.91180 -110.96463 23352 ft 375 kts 302°
2026-05-06 21:53 39.92297 -110.99447 23215 ft 355 kts 303°
2026-05-06 21:54 39.93341 -111.02232 23101 ft 337 kts 303°
2026-05-06 21:54 39.94362 -111.04938 22678 ft 328 kts 303°
2026-05-06 21:54 39.95369 -111.07596 22041 ft 326 kts 303°
2026-05-06 21:54 39.96373 -111.10244 21416 ft 326 kts 303°
2026-05-06 21:55 39.97380 -111.12907 21022 ft 326 kts 302°
2026-05-06 21:55 39.98371 -111.15538 20724 ft 321 kts 302°
2026-05-06 21:55 39.99352 -111.18147 20297 ft 320 kts 302°
2026-05-06 21:55 40.00319 -111.20719 19955 ft 318 kts 302°
2026-05-06 21:56 40.01289 -111.23308 19630 ft 316 kts 302°
2026-05-06 21:56 40.02249 -111.25870 19290 ft 314 kts 302°
2026-05-06 21:56 40.03203 -111.28419 18948 ft 312 kts 302°
2026-05-06 21:56 40.04154 -111.30959 18622 ft 310 kts 302°
2026-05-06 21:57 40.05101 -111.33492 18321 ft 309 kts 301°
2026-05-06 21:57 40.06039 -111.36006 17971 ft 308 kts 301°
2026-05-06 21:57 40.06974 -111.38511 17597 ft 307 kts 301°
2026-05-06 21:57 40.07908 -111.41018 17237 ft 306 kts 301°
2026-05-06 21:58 40.08826 -111.43481 16878 ft 305 kts 301°
2026-05-06 21:58 40.09752 -111.45969 16512 ft 304 kts 301°
2026-05-06 21:58 40.10675 -111.48452 16116 ft 303 kts 301°
2026-05-06 21:58 40.11594 -111.50924 15757 ft 302 kts 301°
2026-05-06 21:59 40.12510 -111.53392 15460 ft 301 kts 301°
2026-05-06 21:59 40.13417 -111.55872 15154 ft 302 kts 300°
2026-05-06 21:59 40.14255 -111.58352 14906 ft 302 kts 299°
2026-05-06 21:59 40.15089 -111.60866 14605 ft 300 kts 299°
2026-05-06 22:00 40.15920 -111.63363 14383 ft 298 kts 299°
2026-05-06 22:00 40.16753 -111.65845 14192 ft 296 kts 301°
2026-05-06 22:00 40.17415 -111.67391 14062 ft 290 kts 311°
2026-05-06 22:00 40.18775 -111.69282 13887 ft 284 kts 322°
2026-05-06 22:01 40.20735 -111.71594 13643 ft 289 kts 322°
2026-05-06 22:01 40.22233 -111.73348 13444 ft 289 kts 322°
2026-05-06 22:01 40.23723 -111.75104 13256 ft 287 kts 322°
2026-05-06 22:01 40.25199 -111.76854 13074 ft 285 kts 322°
2026-05-06 22:02 40.26170 -111.78009 12957 ft 284 kts 321°
2026-05-06 22:02 40.27644 -111.79767 12782 ft 283 kts 321°
2026-05-06 22:02 40.29074 -111.81477 12610 ft 282 kts 321°
2026-05-06 22:02 40.30523 -111.83211 12435 ft 281 kts 321°
2026-05-06 22:03 40.31951 -111.84923 12251 ft 275 kts 322°
2026-05-06 22:03 40.33347 -111.86600 12070 ft 268 kts 322°
2026-05-06 22:03 40.34752 -111.88143 11889 ft 259 kts 333°
2026-05-06 22:03 40.36355 -111.89125 11724 ft 251 kts 339°
2026-05-06 22:04 40.37943 -111.90035 11567 ft 247 kts 339°
2026-05-06 22:04 40.39513 -111.90953 11393 ft 246 kts 338°
2026-05-06 22:04 40.41080 -111.91876 11222 ft 248 kts 338°
2026-05-06 22:04 40.42651 -111.92806 10962 ft 250 kts 339°
2026-05-06 22:05 40.44267 -111.93531 10640 ft 243 kts 352°
2026-05-06 22:05 40.45955 -111.93711 10345 ft 237 kts 358°
2026-05-06 22:05 40.47589 -111.93845 10027 ft 234 kts 356°
2026-05-06 22:05 40.49174 -111.94026 9726 ft 228 kts 355°
2026-05-06 22:06 40.50732 -111.94211 9429 ft 221 kts 355°
2026-05-06 22:06 40.52244 -111.94387 9133 ft 215 kts 355°
2026-05-06 22:06 40.53713 -111.94557 8860 ft 208 kts 354°
2026-05-06 22:06 40.55126 -111.94721 8591 ft 200 kts 354°
2026-05-06 22:07 40.56482 -111.94878 8330 ft 191 kts 354°
2026-05-06 22:07 40.57778 -111.95028 8076 ft 183 kts 353°
2026-05-06 22:07 40.59023 -111.95173 7840 ft 175 kts 354°
2026-05-06 22:07 40.60206 -111.95310 7633 ft 172 kts 353°
2026-05-06 22:08 40.61396 -111.95449 7405 ft 173 kts 353°
2026-05-06 22:08 40.62590 -111.95587 7181 ft 172 kts 353°
2026-05-06 22:08 40.63768 -111.95724 6968 ft 167 kts 353°
2026-05-06 22:08 40.64894 -111.95853 6775 ft 155 kts 351°
2026-05-06 22:09 40.65931 -111.95973 6531 ft 148 kts 351°
2026-05-06 22:09 40.66977 -111.96096 6349 ft 152 kts 350°
2026-05-06 22:09 40.68046 -111.96221 6141 ft 154 kts 351°
2026-05-06 22:09 40.69127 -111.96346 5927 ft 158 kts 352°
2026-05-06 22:10 40.70226 -111.96473 5715 ft 159 kts 352°
2026-05-06 22:10 40.71326 -111.96601 5473 ft 158 kts 352°
2026-05-06 22:10 40.72406 -111.96726 5265 ft 156 kts 352°
2026-05-06 22:10 40.73484 -111.96845 5061 ft 152 kts 353°
2026-05-06 22:11 40.74519 -111.96963 4862 ft 147 kts 353°
2026-05-06 22:11 40.75522 -111.97091 4663 ft 146 kts 353°
2026-05-06 22:11 40.76548 -111.97202 4482 ft 146 kts 352°
2026-05-06 22:11 40.77551 -111.97323 4298 ft 143 kts 352°
2026-05-06 22:12 40.78483 -111.97435 4235 ft 123 kts 354°
2026-05-06 22:12 40.79185 -111.97514 4234 ft 80 kts 355°
2026-05-06 22:12 40.79573 -111.97558 4232 ft 25 kts 355°
2026-05-06 22:12 40.79672 -111.97579 4232 ft 10 kts 329°
2026-05-06 22:13 40.79691 -111.97661 4231 ft 7 kts 266°
2026-05-06 22:13 40.79688 -111.97719 4233 ft 6 kts 264°
2026-05-06 22:13 40.79684 -111.97782 4233 ft 7 kts 265°
2026-05-06 22:13 40.79678 -111.97846 4233 ft 7 kts 256°
2026-05-06 22:14 40.79641 -111.97878 4233 ft 7 kts 181°
2026-05-06 22:14 40.79592 -111.97875 4233 ft 8 kts 175°
2026-05-06 22:14 40.79532 -111.97869 4233 ft 9 kts 175°
2026-05-06 22:14 40.79468 -111.97861 4233 ft 9 kts 174°
2026-05-06 22:15 40.79404 -111.97853 4233 ft 9 kts 175°
2026-05-06 22:15 40.79331 -111.97845 4233 ft 12 kts 175°
2026-05-06 22:15 40.79278 -111.97777 4233 ft 12 kts 109°
2026-05-06 22:15 40.79209 -111.97734 4234 ft 12 kts 175°
2026-05-06 22:16 40.79131 -111.97725 4234 ft 11 kts 175°
2026-05-06 22:16 40.79054 -111.97716 4234 ft 11 kts 175°
2026-05-06 22:16 40.78971 -111.97707 4234 ft 13 kts 174°
2026-05-06 22:16 40.78883 -111.97696 4234 ft 13 kts 175°
2026-05-06 22:17 40.78796 -111.97686 4234 ft 12 kts 175°
2026-05-06 22:17 40.78712 -111.97677 4234 ft 12 kts 175°
2026-05-06 22:17 40.78630 -111.97667 4234 ft 12 kts 174°
2026-05-06 22:17 40.78550 -111.97662 4234 ft 11 kts 193°
2026-05-06 22:18 40.78518 -111.97749 4234 ft 11 kts 260°
2026-05-06 22:18 40.78505 -111.97848 4234 ft 11 kts 261°
2026-05-06 22:18 40.78499 -111.97942 4234 ft 10 kts 265°
2026-05-06 22:18 40.78493 -111.98028 4234 ft 8 kts 265°
2026-05-06 22:19 40.78489 -111.98090 4234 ft 5 kts 265°
2026-05-06 22:19 40.78495 -111.98099 4234 ft 1 kts 346°
2026-05-06 22:19 40.78509 -111.98097 4232 ft 3 kts
2026-05-06 22:19 40.78526 -111.98099 4234 ft 2 kts 354°
2026-05-06 22:20 40.78537 -111.98100 4234 ft 1 kts 354°
2026-05-06 22:20 40.78541 -111.98101 4234 ft 0 kts 354°